Hourly Data Report for September 29, 2019

All times are specified in Local Standard Time (LST). Add 1 hour to adjust for Daylight Saving Time where and when it is observed.

EUREKA CLIMATE
NUNAVUT
Current Station Operator: ECCC - MSC

79°59'21.000" N
85°56'02.000" W
10.00 m
2401199
71613
NEK

Download Data

Hourly Data (September 2019)
Hourly Data Report for September 29, 2019
TIME Temp Definition
°C
Dew Point Definition
°C
Rel Hum Definition
%
Wind Dir Definition
10's deg

Wind Spd Definition
km/h
Visibility Definition
km
Stn Press Definition
kPa
Hmdx Definition


Wind Chill Definition


Weather Definition


00:00 1.1 0.3 95 7 3   101.05     LegendNANA
01:00 1.4 0.6 95 7 8   101.07     LegendNANA
02:00 1.1 0.5 96 11 13   101.11     LegendNANA
03:00 1.2 0.8 97 11 9   101.14     LegendNANA
04:00 1.3 0.9 97 11 9   101.14     LegendNANA
05:00 1.2 0.7 97 13 9   101.16     LegendNANA
06:00 1.3 0.8 96 11 9   101.18     LegendNANA
07:00 1.1 0.6 97 4 7   101.20     LegendNANA
08:00 1.5 1.0 96 2 7   101.19     LegendNANA
09:00 1.5 0.8 95   0   101.20     LegendNANA
10:00 1.3 0.7 95 3 2   101.22     LegendNANA
11:00 1.0 0.4 96 2 4   101.21     LegendNANA
12:00 2.2 0.8 90   0   101.22     LegendNANA
13:00 1.7 0.7 93 6 6   101.24     LegendNANA
14:00 1.3 0.1 91 11 6   101.23     LegendNANA
15:00 1.5 0.5 93 11 7   101.22     LegendNANA
16:00 1.4 0.6 95 3 3   101.24     LegendNANA
17:00 1.3 0.7 95   0   101.23     LegendNANA
18:00 1.7 1.0 95 11 2   101.23     LegendNANA
19:00 1.1 0.5 96 3 10   101.23     LegendNANA
20:00 1.4 0.8 96 9 5   101.24     LegendNANA
21:00 1.2 0.4 94 9 9   101.22     LegendNANA
22:00 1.5 0.6 94 9 13   101.22     LegendNANA
23:00 0.9 0.0 94 12 9   101.23     LegendNANA

Notes on Data Quality.

Legend

  • E = Estimated
  • M = Missing
  • NA = Not Available
Date modified: